This is the latest recevied weather packets stored in our database for station/object KE5VT. If no packets are shown the sender has not sent any weather packets the latest 10 day(s).
| Time | Temp. | Humidity | Pressure | Rain* | Wind** | Luminosity | Snow |
|---|---|---|---|---|---|---|---|
| 1777925820 | 26.67° C | 26% | 1010.7 hPa | 0 mm | - | 121 W/m² | - |
| 1777925518 | 26.11° C | 25% | 1010.7 hPa | 0 mm | - | 540 W/m² | - |
| 1777925215 | 26.67° C | 21% | 1010.7 hPa | 0 mm | - | 564 W/m² | - |
| 1777924911 | 26.11° C | 23% | 1010.8 hPa | 0 mm | - | 572 W/m² | - |
| 1777924607 | 25° C | 29% | 1010.8 hPa | 0 mm | - | 99 W/m² | - |
| 1777924304 | 25° C | 27% | 1011 hPa | 0 mm | - | 125 W/m² | - |
| 1777924001 | 25° C | 26% | 1010.8 hPa | 0 mm | - | 53 W/m² | - |
| 1777923697 | 25.56° C | 28% | 1011.1 hPa | 0 mm | - | 147 W/m² | - |
| 1777923393 | 26.11° C | 30% | 1011 hPa | 0 mm | - | 622 W/m² | - |
| 1777923091 | 26.11° C | 27% | 1011.1 hPa | 0 mm | - | 544 W/m² | - |
| 1777922789 | 26.67° C | 29% | 1011.2 hPa | 0 mm | - | 640 W/m² | - |
| 1777922487 | 25.56° C | 30% | 1011.4 hPa | 0 mm | - | 648 W/m² | - |
| 1777922185 | 25° C | 31% | 1011.3 hPa | 0 mm | - | 606 W/m² | - |
| 1777921881 | 25.56° C | 28% | 1011.4 hPa | 0 mm | - | 71 W/m² | - |
| 1777921577 | 25.56° C | 32% | 1011.3 hPa | 0 mm | - | 62 W/m² | - |
| 1777921274 | 25.56° C | 30% | 1011.4 hPa | 0 mm | - | 62 W/m² | - |
| 1777920970 | 25° C | 31% | 1011.5 hPa | 0 mm | - | 255 W/m² | - |
| 1777920667 | 25° C | 31% | 1011.6 hPa | 0 mm | - | 695 W/m² | - |
| 1777920363 | 24.44° C | 30% | 1011.6 hPa | 0 mm | - | 122 W/m² | - |
| 1777920058 | 25° C | 29% | 1011.7 hPa | 0 mm | - | 673 W/m² | - |
| 1777919755 | 25° C | 30% | 1011.8 hPa | 0 mm | - | 588 W/m² | - |
| 1777919453 | 24.44° C | 31% | 1012 hPa | 0 mm | - | 586 W/m² | - |
| 1777919150 | 25° C | 30% | 1012 hPa | 0 mm | - | 74 W/m² | - |
| 1777918847 | 23.89° C | 31% | 1012.2 hPa | 0 mm | - | 664 W/m² | - |
| 1777918544 | 23.89° C | 30% | 1012.2 hPa | 0 mm | - | 652 W/m² | - |
* Rain latest hour (hover to see other rain measurements)
** Current wind speed in m/s (hover to see current wind gust speed)